TimeCST,TemperatureF,Dew PointF,Humidity,Sea Level PressureIn,VisibilityMPH,Wind Direction,Wind SpeedMPH,Gust SpeedMPH,PrecipitationIn,Events,Conditions,WindDirDegrees,DateUTC
12:15 AM,31.1,30.7,99,30.31,10.0,Calm,Calm,-,N/A,,Clear,0,2012-12-14 06:15:00
12:35 AM,31.5,31.5,100,30.31,10.0,Calm,Calm,-,N/A,,Clear,0,2012-12-14 06:35:00
12:55 AM,30.9,30.9,100,30.32,10.0,Calm,Calm,-,N/A,,Clear,0,2012-12-14 06:55:00
1:15 AM,31.3,31.3,100,30.31,10.0,Calm,Calm,-,N/A,,Clear,0,2012-12-14 07:15:00
1:35 AM,30.6,30.2,99,30.31,10.0,Calm,Calm,-,N/A,,Clear,0,2012-12-14 07:35:00
1:55 AM,30.7,30.6,99,30.30,10.0,Calm,Calm,-,N/A,,Clear,0,2012-12-14 07:55:00
2:15 AM,30.6,30.6,100,30.30,10.0,Calm,Calm,-,N/A,,Clear,0,2012-12-14 08:15:00
2:35 AM,30.0,30.0,100,30.30,10.0,Calm,Calm,-,N/A,,Clear,0,2012-12-14 08:35:00
2:55 AM,30.6,30.6,100,30.29,10.0,Calm,Calm,-,N/A,,Clear,0,2012-12-14 08:55:00
3:15 AM,29.3,29.3,100,30.29,10.0,Calm,Calm,-,N/A,,Clear,0,2012-12-14 09:15:00
3:35 AM,29.3,29.3,100,30.29,10.0,Calm,Calm,-,N/A,,Clear,0,2012-12-14 09:35:00
3:55 AM,30.2,30.2,100,30.29,10.0,Calm,Calm,-,N/A,,Clear,0,2012-12-14 09:55:00
4:15 AM,29.1,29.1,100,30.29,10.0,Calm,Calm,-,N/A,,Clear,0,2012-12-14 10:15:00
4:35 AM,29.5,29.5,100,30.28,10.0,Calm,Calm,-,N/A,,Clear,0,2012-12-14 10:35:00
4:55 AM,29.3,29.3,100,30.27,10.0,Calm,Calm,-,N/A,,Clear,0,2012-12-14 10:55:00
5:15 AM,28.9,28.9,100,30.27,10.0,Calm,Calm,-,N/A,,Clear,0,2012-12-14 11:15:00
5:35 AM,29.1,29.1,100,30.27,10.0,Calm,Calm,-,N/A,,Clear,0,2012-12-14 11:35:00
5:55 AM,29.3,29.3,100,30.27,10.0,Calm,Calm,-,N/A,,Clear,0,2012-12-14 11:55:00
6:15 AM,29.7,29.7,100,30.28,10.0,Calm,Calm,-,N/A,,Clear,0,2012-12-14 12:15:00
6:35 AM,30.2,29.7,98,30.28,10.0,Calm,Calm,-,N/A,,Clear,0,2012-12-14 12:35:00
6:55 AM,29.8,29.1,97,30.29,10.0,Calm,Calm,-,N/A,,Clear,0,2012-12-14 12:55:00
7:15 AM,29.7,29.7,100,30.30,10.0,Calm,Calm,-,N/A,,Clear,0,2012-12-14 13:15:00
7:35 AM,32.0,31.6,99,30.29,10.0,Calm,Calm,-,N/A,,Clear,0,2012-12-14 13:35:00
7:55 AM,33.8,33.1,97,30.30,10.0,South,4.6,-,N/A,,Clear,180,2012-12-14 13:55:00
8:15 AM,38.1,33.3,83,30.29,10.0,South,3.5,-,N/A,,Clear,170,2012-12-14 14:15:00
8:35 AM,42.4,35.4,76,30.30,10.0,South,3.5,-,N/A,,Clear,180,2012-12-14 14:35:00
8:55 AM,45.1,34.5,66,30.30,10.0,South,6.9,-,N/A,,Clear,180,2012-12-14 14:55:00
9:15 AM,46.9,35.1,63,30.30,10.0,SSE,4.6,-,N/A,,Clear,160,2012-12-14 15:15:00
9:35 AM,49.3,34.2,56,30.30,10.0,South,4.6,-,N/A,,Clear,170,2012-12-14 15:35:00
9:55 AM,50.9,34.3,53,30.29,10.0,SSE,6.9,-,N/A,,Clear,150,2012-12-14 15:55:00
10:15 AM,51.6,34.7,52,30.29,10.0,SSE,4.6,-,N/A,,Scattered Clouds,160,2012-12-14 16:15:00
10:35 AM,54.9,34.9,47,30.28,10.0,SE,4.6,-,N/A,,Clear,140,2012-12-14 16:35:00
10:55 AM,57.4,35.1,43,30.29,10.0,South,11.5,-,N/A,,Clear,170,2012-12-14 16:55:00
11:15 AM,57.2,35.1,43,30.28,10.0,South,8.1,-,N/A,,Clear,170,2012-12-14 17:15:00
11:35 AM,57.6,35.4,43,30.27,10.0,South,6.9,-,N/A,,Clear,180,2012-12-14 17:35:00
12:15 PM,58.5,33.1,38,30.24,10.0,SSE,6.9,-,N/A,,Overcast,150,2012-12-14 18:15:00
12:35 PM,60.3,34.5,38,30.23,10.0,South,8.1,-,N/A,,Overcast,180,2012-12-14 18:35:00
12:55 PM,60.4,34.3,38,30.21,10.0,South,8.1,-,N/A,,Mostly Cloudy,170,2012-12-14 18:55:00
1:15 PM,61.0,33.3,35,30.20,10.0,SSE,4.6,-,N/A,,Overcast,150,2012-12-14 19:15:00
1:35 PM,61.2,33.4,35,30.19,10.0,SE,4.6,-,N/A,,Overcast,130,2012-12-14 19:35:00
1:55 PM,61.5,33.6,35,30.17,10.0,ESE,4.6,-,N/A,,Mostly Cloudy,120,2012-12-14 19:55:00
2:15 PM,61.2,33.4,35,30.16,10.0,SSE,5.8,-,N/A,,Mostly Cloudy,150,2012-12-14 20:15:00
2:35 PM,61.5,33.3,35,30.15,10.0,ESE,4.6,-,N/A,,Overcast,120,2012-12-14 20:35:00
2:55 PM,61.0,34.5,37,30.15,10.0,SSE,4.6,-,N/A,,Mostly Cloudy,150,2012-12-14 20:55:00
3:15 PM,60.8,36.1,40,30.13,10.0,SE,4.6,-,N/A,,Scattered Clouds,140,2012-12-14 21:15:00
3:35 PM,60.4,36.5,41,30.13,10.0,SE,4.6,-,N/A,,Scattered Clouds,140,2012-12-14 21:35:00
3:55 PM,60.1,36.5,41,30.13,10.0,SE,4.6,-,N/A,,Mostly Cloudy,140,2012-12-14 21:55:00
4:15 PM,59.5,37.4,44,30.12,10.0,Calm,Calm,-,N/A,,Overcast,0,2012-12-14 22:15:00
4:35 PM,59.2,37.8,45,30.12,10.0,SE,3.5,-,N/A,,Overcast,140,2012-12-14 22:35:00
4:55 PM,58.6,38.7,47,30.11,10.0,SE,4.6,-,N/A,,Overcast,140,2012-12-14 22:55:00
5:15 PM,58.3,38.5,48,30.12,10.0,SE,4.6,-,N/A,,Overcast,140,2012-12-14 23:15:00
5:35 PM,58.1,38.8,49,30.12,10.0,Calm,Calm,-,N/A,,Overcast,0,2012-12-14 23:35:00
5:55 PM,57.6,39.7,51,30.12,10.0,SE,3.5,-,N/A,Rain,Light Rain,130,2012-12-14 23:55:00
6:15 PM,57.2,39.7,52,30.11,10.0,SE,3.5,-,N/A,,Overcast,130,2012-12-15 00:15:00
6:35 PM,57.4,39.2,51,30.11,10.0,SE,4.6,-,N/A,,Overcast,130,2012-12-15 00:35:00
6:55 PM,57.4,39.4,51,30.12,10.0,SSE,3.5,-,N/A,,Overcast,150,2012-12-15 00:55:00
7:15 PM,56.8,40.3,54,30.10,10.0,ESE,5.8,-,N/A,Rain,Light Rain,120,2012-12-15 01:15:00
7:35 PM,56.8,39.7,53,30.09,10.0,SE,5.8,-,N/A,,Overcast,140,2012-12-15 01:35:00
8:15 PM,56.8,40.1,54,30.10,10.0,SSE,3.5,-,N/A,,Overcast,160,2012-12-15 02:15:00
8:35 PM,56.3,40.6,56,30.09,10.0,SE,4.6,-,N/A,,Overcast,130,2012-12-15 02:35:00
8:55 PM,56.8,41.0,55,30.08,10.0,SE,5.8,-,N/A,,Mostly Cloudy,140,2012-12-15 02:55:00
9:15 PM,56.5,41.2,57,30.06,10.0,SSE,5.8,-,N/A,,Scattered Clouds,150,2012-12-15 03:15:00
9:35 PM,56.3,41.9,59,30.07,10.0,Calm,Calm,-,N/A,,Scattered Clouds,0,2012-12-15 03:35:00
9:55 PM,56.3,42.6,60,30.07,10.0,SE,3.5,-,N/A,,Overcast,130,2012-12-15 03:55:00
10:15 PM,56.8,43.0,60,30.07,10.0,SSE,6.9,-,N/A,,Overcast,150,2012-12-15 04:15:00
10:35 PM,57.2,43.3,60,30.06,10.0,SSE,4.6,-,N/A,,Mostly Cloudy,150,2012-12-15 04:35:00
10:55 PM,56.3,44.6,65,30.07,10.0,SSE,4.6,-,N/A,,Mostly Cloudy,150,2012-12-15 04:55:00
11:15 PM,56.8,45.5,66,30.06,10.0,SSE,5.8,-,N/A,Rain,Light Rain,160,2012-12-15 05:15:00
11:35 PM,57.0,46.4,68,30.04,10.0,SSE,6.9,-,N/A,,Scattered Clouds,160,2012-12-15 05:35:00
11:55 PM,57.2,47.3,69,30.04,10.0,SSE,9.2,-,N/A,,Mostly Cloudy,160,2012-12-15 05:55:00